TimeEDT,TemperatureF,Dew PointF,Humidity,Sea Level PressureIn,VisibilityMPH,Wind Direction,Wind SpeedMPH,Gust SpeedMPH,PrecipitationIn,Events,Conditions,WindDirDegrees,DateUTC
12:52 AM,61.0,50.0,67,29.91,10.0,South,9.2,-,N/A,,Mostly Cloudy,190,2013-04-16 04:52:00
1:52 AM,60.1,50.0,69,29.89,10.0,South,5.8,-,N/A,,Overcast,170,2013-04-16 05:52:00
2:52 AM,59.0,50.0,72,29.88,10.0,South,9.2,-,N/A,,Overcast,190,2013-04-16 06:52:00
3:52 AM,60.1,50.0,69,29.91,10.0,WSW,9.2,-,N/A,,Overcast,250,2013-04-16 07:52:00
4:52 AM,59.0,51.1,75,29.92,10.0,WSW,4.6,-,N/A,,Overcast,240,2013-04-16 08:52:00
5:52 AM,53.1,46.9,80,29.94,10.0,NNW,6.9,-,N/A,,Mostly Cloudy,330,2013-04-16 09:52:00
6:18 AM,51.8,46.4,82,29.99,9.0,WNW,8.1,-,0.01,Rain-Thunderstorm,Light Rain,300,2013-04-16 10:18:00
6:24 AM,50.0,46.4,87,30.00,1.8,WNW,11.5,-,0.09,Rain-Thunderstorm,Heavy Thunderstorms and Rain,300,2013-04-16 10:24:00
6:34 AM,50.0,46.4,87,30.01,3.0,NW,10.4,-,0.20,Rain-Thunderstorm,Heavy Thunderstorms and Rain,310,2013-04-16 10:34:00
6:52 AM,48.9,46.9,93,30.00,2.5,North,3.5,-,0.29,Rain-Thunderstorm,Heavy Thunderstorms and Rain,360,2013-04-16 10:52:00
7:01 AM,48.2,46.4,93,29.98,5.0,NE,4.6,-,0.02,Rain-Thunderstorm,Thunderstorms and Rain,40,2013-04-16 11:01:00
7:23 AM,48.2,46.4,93,29.98,7.0,Calm,Calm,-,0.05,Rain,Rain,0,2013-04-16 11:23:00
7:52 AM,48.9,46.9,93,29.98,3.0,Calm,Calm,-,0.13,Rain,Rain,0,2013-04-16 11:52:00
8:29 AM,50.0,48.2,94,29.99,6.0,Calm,Calm,-,0.04,Rain,Light Rain,0,2013-04-16 12:29:00
8:47 AM,50.0,48.2,94,30.01,4.0,NW,3.5,-,0.05,Rain,Rain,320,2013-04-16 12:47:00
8:48 AM,50.0,48.0,93,30.01,4.0,NW,3.5,-,0.05,Rain,Rain,310,2013-04-16 12:48:00
9:09 AM,48.2,46.4,93,30.04,10.0,WNW,9.2,-,0.01,,Overcast,300,2013-04-16 13:09:00
9:27 AM,48.2,46.4,93,30.05,10.0,WNW,6.9,-,0.01,Rain,Light Rain,290,2013-04-16 13:27:00
9:52 AM,50.0,46.9,89,30.06,10.0,WNW,6.9,-,0.01,,Overcast,290,2013-04-16 13:52:00
10:50 AM,50.0,46.4,87,30.08,10.0,WNW,6.9,-,N/A,,Overcast,300,2013-04-16 14:50:00
10:52 AM,50.0,46.9,89,30.08,10.0,WNW,9.2,-,N/A,,Overcast,290,2013-04-16 14:52:00
11:05 AM,50.0,46.4,87,30.08,10.0,West,11.5,-,N/A,,Overcast,280,2013-04-16 15:05:00
11:37 AM,50.0,46.4,87,30.07,10.0,NW,9.2,-,N/A,,Overcast,310,2013-04-16 15:37:00
11:52 AM,51.1,46.9,86,30.07,10.0,NW,9.2,-,N/A,,Overcast,310,2013-04-16 15:52:00
12:52 PM,53.1,46.9,80,30.08,10.0,West,3.5,-,N/A,,Overcast,280,2013-04-16 16:52:00
1:19 PM,53.6,46.4,77,30.08,10.0,WNW,9.2,-,N/A,,Overcast,290,2013-04-16 17:19:00
1:41 PM,55.4,46.4,72,30.09,10.0,NW,6.9,-,N/A,,Overcast,320,2013-04-16 17:41:00
1:52 PM,55.0,46.9,74,30.10,10.0,West,10.4,-,N/A,,Overcast,260,2013-04-16 17:52:00
2:52 PM,55.0,46.9,74,30.12,10.0,West,11.5,-,N/A,,Overcast,260,2013-04-16 18:52:00
3:52 PM,57.0,45.0,64,30.13,10.0,West,11.5,-,N/A,,Mostly Cloudy,270,2013-04-16 19:52:00
4:01 PM,57.2,44.6,63,30.13,10.0,West,15.0,-,N/A,,Scattered Clouds,270,2013-04-16 20:01:00
4:52 PM,57.0,44.1,62,30.13,10.0,West,9.2,-,N/A,,Clear,260,2013-04-16 20:52:00
5:52 PM,57.9,39.9,51,30.14,10.0,West,6.9,-,N/A,,Scattered Clouds,280,2013-04-16 21:52:00
6:52 PM,57.0,39.9,53,30.16,10.0,West,5.8,-,N/A,,Mostly Cloudy,280,2013-04-16 22:52:00
7:52 PM,55.9,39.0,53,30.17,10.0,WNW,5.8,-,N/A,,Overcast,290,2013-04-16 23:52:00
8:52 PM,52.0,45.0,77,30.17,10.0,Calm,Calm,-,0.03,,Mostly Cloudy,0,2013-04-17 00:52:00
9:52 PM,51.1,45.0,80,30.19,10.0,Calm,Calm,-,N/A,,Mostly Cloudy,0,2013-04-17 01:52:00
10:52 PM,48.0,46.0,93,30.20,10.0,Calm,Calm,-,N/A,,Partly Cloudy,0,2013-04-17 02:52:00
11:52 PM,48.9,42.1,77,30.21,10.0,NNW,4.6,-,N/A,,Scattered Clouds,330,2013-04-17 03:52:00